CW6245 Weather Reports


time (UTC)temp
C
wind
direction
speed
KPH
gust
KPH
rain 1hr
cm
rain 24hr
cm
rain mn
cm
humidity
%
barometer
mb
20260906150745 13 204 1.6 8.0 0.00 0.00 0.00 75 733.8
20260906150245 13 171 6.4 9.7 0.00 0.00 0.00 76 733.8
20260906145745 13 145 4.8 8.0 0.00 0.00 0.00 75 733.8
20260906145248 13 146 3.2 8.0 0.00 0.00 0.00 76 733.8
20260906144745 13 183 4.8 8.0 0.00 0.00 0.00 76 733.8
20260906144245 13 179 3.2 8.0 0.00 0.00 0.00 77 733.8
20260906143745 13 181 3.2 8.0 0.00 0.00 0.00 77 733.8
20260906143245 13 174 6.4 8.0 0.00 0.00 0.00 77 733.8
20260906142748 13 173 6.4 11.3 0.00 0.00 0.00 77 733.5
20260906142245 13 161 6.4 11.3 0.00 0.00 0.00 78 733.5
20260906141745 13 168 6.4 9.7 0.00 0.00 0.00 78 733.5
20260906141245 13 180 6.4 8.0 0.00 0.00 0.00 77 733.5
20260906140745 13 176 4.8 6.4 0.00 0.00 0.00 75 733.5
20260906140245 13 175 3.2 6.4 0.00 0.00 0.00 74 733.5
20260906135745 13 27 1.6 3.2 0.00 0.00 0.00 75 733.1
20260906135248 13 94 1.6 8.0 0.00 0.00 0.00 76 733.1
20260906134748 12 114 4.8 9.7 0.00 0.00 0.00 78 733.1
20260906134245 12 138 4.8 12.9 0.00 0.00 0.00 79 733.1
20260906133745 12 162 6.4 11.3 0.00 0.00 0.00 79 733.1
20260906133248 12 166 9.7 12.9 0.00 0.00 0.00 80 733.1
20260906132745 12 171 9.7 12.9 0.00 0.00 0.00 81 733.1
20260906132248 12 171 9.7 12.9 0.00 0.00 0.00 81 732.8
20260906131745 12 174 9.7 12.9 0.00 0.00 0.00 81 732.8
20260906131245 12 176 8.0 12.9 0.00 0.00 0.00 80 733.1
20260906130745 12 173 9.7 11.3 0.00 0.00 0.00 80 732.8
20260906130253 12 172 8.0 11.3 0.00 0.00 0.00 80 732.8
20260906125745 12 173 8.0 9.7 0.00 0.00 0.00 79 732.8
20260906125245 12 182 8.0 12.9 0.00 0.00 0.00 78 732.8
20260906124745 12 179 8.0 12.9 0.00 0.00 0.00 78 732.8
20260906124245 12 170 9.7 12.9 0.00 0.00 0.00 78 732.8
20260906123745 12 170 8.0 11.3 0.00 0.00 0.00 78 732.8
20260906123245 12 172 8.0 11.3 0.00 0.00 0.00 77 732.8
20260906122745 12 172 8.0 9.7 0.00 0.00 0.00 77 732.8
20260906122245 13 181 6.4 9.7 0.00 0.00 0.00 76 732.8
20260906121748 13 169 6.4 11.3 0.00 0.00 0.00 74 732.8
20260906121245 13 172 6.4 9.7 0.00 0.00 0.00 73 732.8
20260906120745 13 165 6.4 8.0 0.00 0.00 0.00 73 732.8
20260906120245 13 171 6.4 9.7 0.00 0.00 0.00 73 732.8
20260906115745 13 169 8.0 11.3 0.00 0.00 0.00 73 732.8
20260906115245 13 165 8.0 11.3 0.00 0.00 0.00 74 732.8
20260906114745 13 167 9.7 11.3 0.00 0.00 0.00 75 732.8
20260906114252 13 169 8.0 12.9 0.00 0.00 0.00 74 732.8
20260906113745 13 173 8.0 11.3 0.00 0.00 0.00 73 732.8
20260906113248 13 174 9.7 12.9 0.00 0.00 0.00 74 732.8
20260906112748 13 171 9.7 12.9 0.00 0.00 0.00 74 732.8
20260906112251 13 172 9.7 12.9 0.00 0.00 0.00 76 732.8
20260906111745 13 173 11.3 14.5 0.00 0.00 0.00 76 732.8
20260906111248 13 173 11.3 14.5 0.00 0.00 0.00 76 732.8
20260906110753 13 172 11.3 14.5 0.00 0.00 0.00 77 732.8
20260906110251 13 170 11.3 16.1 0.00 0.00 0.00 76 732.8
20260906105751 13 171 11.3 14.5 0.00 0.00 0.00 77 732.8
20260906105245 13 173 11.3 14.5 0.00 0.00 0.00 78 732.8
20260906104745 12 173 11.3 14.5 0.00 0.00 0.00 79 732.8
20260906104245 12 173 11.3 16.1 0.00 0.00 0.00 81 732.8
20260906103748 12 174 11.3 14.5 0.00 0.00 0.00 82 732.8
20260906103245 12 176 12.9 17.7 0.00 0.00 0.00 82 732.8
20260906102745 12 172 12.9 16.1 0.00 0.00 0.00 82 732.8
20260906102245 12 172 14.5 17.7 0.00 0.00 0.00 82 732.8
20260906101745 12 178 11.3 17.7 0.00 0.00 0.00 82 732.8
20260906101245 12 179 11.3 16.1 0.00 0.00 0.00 81 732.8
20260906100745 12 174 12.9 16.1 0.00 0.00 0.00 81 732.8
20260906100248 12 178 11.3 16.1 0.00 0.00 0.00 80 732.8
20260906095745 12 171 12.9 17.7 0.00 0.00 0.00 81 732.8
20260906095245 12 175 12.9 16.1 0.00 0.00 0.00 81 732.8
20260906094748 12 172 12.9 16.1 0.00 0.00 0.00 82 732.8
20260906094248 12 173 12.9 16.1 0.00 0.00 0.00 83 732.8
20260906093745 12 173 12.9 19.3 0.00 0.00 0.00 83 733.1
20260906093245 12 172 14.5 17.7 0.00 0.00 0.00 84 732.8
20260906092745 12 172 14.5 20.9 0.00 0.00 0.00 84 733.1
20260906092245 12 179 14.5 20.9 0.00 0.00 0.00 84 732.8
20260906091748 12 180 14.5 20.9 0.00 0.00 0.00 84 732.8
20260906091245 12 178 14.5 22.5 0.00 0.00 0.00 84 732.8
20260906090748 12 175 14.5 20.9 0.00 0.00 0.00 84 732.8
20260906090245 12 178 16.1 24.1 0.00 0.00 0.00 84 733.1
20260906085748 12 178 16.1 19.3 0.00 0.00 0.00 84 732.8
20260906085245 12 180 14.5 20.9 0.00 0.00 0.00 85 733.1
20260906084748 12 181 14.5 19.3 0.00 0.00 0.00 86 733.1
20260906084248 12 181 14.5 19.3 0.00 0.00 0.00 85 733.1
20260906083745 12 183 14.5 17.7 0.00 0.00 0.00 85 733.1
20260906083248 12 183 12.9 17.7 0.00 0.00 0.00 85 733.1
20260906082745 12 184 12.9 16.1 0.00 0.00 0.00 85 733.1
20260906082245 12 177 11.3 16.1 0.00 0.00 0.00 85 733.1
20260906081747 12 178 11.3 14.5 0.00 0.00 0.00 85 733.1
20260906081249 12 178 11.3 16.1 0.00 0.00 0.00 86 733.1
20260906080745 12 181 11.3 16.1 0.00 0.00 0.00 86 733.1
20260906080245 12 183 12.9 17.7 0.00 0.00 0.00 86 733.1
20260906075745 12 184 12.9 17.7 0.00 0.00 0.00 86 733.1
20260906075248 12 185 14.5 19.3 0.00 0.00 0.00 86 733.1
20260906074745 12 185 14.5 19.3 0.00 0.00 0.00 86 733.1
20260906074248 12 184 14.5 20.9 0.00 0.00 0.00 86 733.1
20260906073745 12 187 14.5 20.9 0.00 0.00 0.00 86 733.5
20260906073248 12 184 12.9 19.3 0.00 0.00 0.00 86 733.5
20260906072745 12 183 12.9 20.9 0.00 0.00 0.00 85 733.5
20260906072248 12 183 12.9 17.7 0.00 0.00 0.00 85 733.5
20260906071751 12 183 12.9 20.9 0.00 0.00 0.00 84 733.5
20260906071245 12 186 14.5 20.9 0.00 0.00 0.00 84 733.5
20260906070748 12 184 16.1 22.5 0.00 0.00 0.00 84 733.5
20260906070245 12 184 16.1 24.1 0.00 0.00 0.00 84 733.5
20260906065748 12 184 16.1 22.5 0.00 0.00 0.00 84 733.5
20260906065245 12 185 17.7 24.1 0.00 0.00 0.00 84 733.5
20260906064745 12 184 16.1 24.1 0.00 0.00 0.00 84 733.5
20260906064245 12 185 17.7 24.1 0.00 0.00 0.00 83 733.5
20260906063747 12 185 16.1 22.5 0.00 0.00 0.00 84 733.5
20260906063245 12 184 16.1 24.1 0.00 0.00 0.00 85 733.8
20260906062748 12 183 14.5 19.3 0.00 0.00 0.00 85 733.8
20260906062245 12 184 14.5 20.9 0.00 0.00 0.00 84 733.8
20260906061745 12 184 14.5 20.9 0.00 0.00 0.00 84 733.8
20260906061248 12 185 16.1 19.3 0.00 0.00 0.00 84 733.8
20260906060745 12 185 14.5 19.3 0.00 0.00 0.00 84 733.8
20260906060245 12 184 14.5 17.7 0.00 0.00 0.00 84 733.8
20260906055745 12 183 12.9 19.3 0.00 0.00 0.00 84 733.8
20260906055245 12 184 14.5 20.9 0.00 0.00 0.00 84 733.8
20260906054745 12 184 12.9 19.3 0.00 0.00 0.00 84 733.8
20260906054245 12 180 12.9 22.5 0.00 0.00 0.00 84 733.8
20260906053745 12 184 14.5 20.9 0.00 0.00 0.00 84 733.8
20260906053248 12 184 16.1 24.1 0.00 0.00 0.00 84 733.8
20260906052751 12 183 16.1 24.1 0.00 0.00 0.00 84 733.8
20260906052248 12 183 14.5 22.5 0.00 0.00 0.00 84 733.8
20260906051745 12 182 12.9 20.9 0.00 0.00 0.00 84 733.8
20260906051251 12 183 14.5 22.5 0.00 0.00 0.00 84 733.8
20260906050745 12 188 14.5 20.9 0.00 0.00 0.00 84 733.8
20260906050248 12 184 14.5 20.9 0.00 0.00 0.00 84 733.8
20260906045748 12 178 12.9 20.9 0.00 0.00 0.00 84 733.8
20260906045245 12 183 12.9 22.5 0.00 0.00 0.00 84 733.8
20260906044745 12 183 12.9 19.3 0.00 0.00 0.00 84 733.8
20260906044245 12 181 12.9 17.7 0.00 0.00 0.00 84 733.8
20260906043745 12 183 12.9 19.3 0.00 0.00 0.00 84 733.8
20260906043245 12 182 12.9 20.9 0.00 0.00 0.00 84 733.8
20260906042746 12 184 16.1 20.9 0.00 0.00 0.00 84 733.8
20260906042245 12 185 14.5 19.3 0.00 0.00 0.00 84 733.5
20260906041745 12 183 14.5 17.7 0.00 0.00 0.00 84 733.8
20260906041245 12 182 11.3 16.1 0.00 0.00 0.00 84 733.8
20260906040745 12 182 12.9 17.7 0.00 0.00 0.00 83 733.5
20260906040248 12 185 14.5 17.7 0.00 0.00 0.00 84 733.5
20260906035745 12 185 12.9 20.9 0.00 0.00 0.00 83 733.5
20260906035251 12 181 12.9 17.7 0.00 0.00 0.00 83 733.5
20260906034745 12 180 12.9 17.7 0.00 0.00 0.00 83 733.5
20260906034248 12 183 14.5 22.5 0.00 0.00 0.00 83 733.1
20260906033749 12 183 12.9 22.5 0.00 0.00 0.00 83 733.1
20260906033245 12 178 12.9 20.9 0.00 0.00 0.00 83 733.1
20260906032745 12 176 12.9 20.9 0.00 0.00 0.00 83 733.1
20260906032248 12 177 12.9 20.9 0.00 0.00 0.00 83 733.1
20260906031748 12 179 11.3 22.5 0.00 0.00 0.00 83 733.1
20260906031245 12 180 11.3 17.7 0.00 0.00 0.00 83 733.1
20260906030751 12 178 9.7 20.9 0.00 0.00 0.00 83 733.1
20260906030245 12 183 12.9 17.7 0.00 0.00 0.00 83 733.1
20260906025748 12 180 11.3 19.3 0.00 0.00 0.00 84 733.1
20260906025245 12 182 14.5 22.5 0.00 0.00 0.00 84 732.8
20260906024745 12 184 14.5 20.9 0.00 0.00 0.00 84 732.8
20260906024245 12 188 12.9 22.5 0.00 0.00 0.00 84 732.8
20260906023745 12 182 12.9 22.5 0.00 0.00 0.00 84 733.1
20260906023251 12 185 12.9 16.1 0.00 0.00 0.00 84 732.8
20260906022745 12 186 12.9 16.1 0.00 0.00 0.00 84 732.8
20260906022245 12 184 11.3 14.5 0.00 0.00 0.00 83 733.1
20260906021745 12 186 8.0 11.3 0.00 0.00 0.00 83 733.1
20260906021245 12 185 6.4 9.7 0.00 0.00 0.00 82 733.1
20260906020745 12 186 6.4 12.9 0.00 0.00 0.00 82 733.1
20260906020245 13 184 9.7 14.5 0.00 0.00 0.00 81 733.1
20260906015745 13 185 11.3 17.7 0.00 0.00 0.00 81 733.1
20260906015245 13 186 11.3 16.1 0.00 0.00 0.00 80 733.1
20260906014745 13 188 9.7 16.1 0.00 0.00 0.00 80 733.1
20260906014245 13 191 9.7 14.5 0.00 0.00 0.00 80 733.1
20260906013745 13 188 9.7 14.5 0.00 0.00 0.00 79 733.1
20260906013245 13 185 4.8 9.7 0.00 0.00 0.00 79 733.1
20260906012748 13 199 4.8 9.7 0.00 0.00 0.00 79 733.1
20260906012248 13 22 0.0 4.8 0.00 0.00 0.00 82 733.1
20260906011746 14 180 1.6 4.8 0.00 0.00 0.00 80 733.1
20260906011245 14 171 0.0 3.2 0.00 0.00 0.00 80 733.1
20260906010745 14 222 0.0 4.8 0.00 0.00 0.00 78 733.1
20260906010248 14 216 1.6 8.0 0.00 0.00 0.00 82 733.1
20260906005745 14 200 4.8 8.0 0.00 0.00 0.00 76 733.1
20260906005245 14 204 1.6 6.4 0.00 0.00 0.00 76 733.1
20260906004745 14 202 3.2 9.7 0.00 0.00 0.00 77 733.1
20260906004246 14 195 4.8 9.7 0.00 0.00 0.00 77 733.1
20260906003745 14 202 3.2 9.7 0.00 0.00 0.00 76 733.1
20260906003248 14 207 3.2 12.9 0.00 0.00 0.00 76 733.1
20260906002745 15 217 1.6 9.7 0.00 0.00 0.00 76 733.1
20260906002245 14 218 1.6 8.0 0.00 0.00 0.00 77 733.1
20260906001745 15 192 4.8 8.0 0.00 0.00 0.00 75 733.1
20260906001245 15 190 3.2 8.0 0.00 0.00 0.00 74 733.1
20260906000745 14 225 1.6 12.9 0.00 0.00 0.00 75 733.1
20260906000245 14 194 8.0 14.5 0.00 0.00 0.00 74 733.1
20260905235745 15 190 8.0 17.7 0.00 0.00 0.00 75 733.1
20260905235245 15 192 8.0 16.1 0.00 0.00 0.00 74 733.1
20260905234745 15 202 8.0 19.3 0.00 0.00 0.00 75 733.1
20260905234248 15 195 9.7 19.3 0.00 0.00 0.00 72 733.1
20260905233745 15 217 3.2 16.1 0.00 0.00 0.00 74 733.1
20260905233245 15 200 8.0 19.3 0.00 0.00 0.00 72 733.1
20260905232745 15 189 11.3 20.9 0.00 0.00 0.00 71 733.1
20260905232245 15 182 8.0 17.7 0.00 0.00 0.00 72 733.1
20260905231745 15 189 11.3 22.5 0.00 0.00 0.00 72 733.1
20260905231245 15 186 12.9 19.3 0.00 0.00 0.00 72 733.1
20260905230745 15 190 11.3 22.5 0.00 0.00 0.00 70 733.1
20260905230245 16 190 8.0 19.3 0.00 0.00 0.00 66 733.1
20260905225745 16 195 8.0 19.3 0.00 0.00 0.00 69 733.1
20260905225245 16 196 6.4 17.7 0.00 0.00 0.00 67 733.1
20260905224745 15 213 4.8 16.1 0.00 0.00 0.00 70 733.1
20260905224245 15 165 4.8 12.9 0.00 0.00 0.00 72 733.1
20260905223745 15 200 4.8 16.1 0.00 0.00 0.00 77 733.1
20260905223245 15 205 4.8 11.3 0.00 0.00 0.00 75 733.1
20260905222745 15 177 1.6 11.3 0.00 0.00 0.00 74 733.1
20260905222245 16 194 3.2 9.7 0.00 0.00 0.00 75 733.5
20260905221745 16 197 4.8 14.5 0.00 0.00 0.00 74 733.5
20260905221245 16 202 6.4 14.5 0.00 0.00 0.00 72 733.5
20260905220746 16 143 1.6 9.7 0.00 0.00 0.00 72 733.5
20260905220251 16 203 4.8 9.7 0.00 0.00 0.00 74 733.5
20260905215745 16 248 1.6 17.7 0.00 0.00 0.00 76 733.5
20260905215248 16 176 4.8 19.3 0.00 0.00 0.00 73 733.5
20260905214745 15 206 6.4 25.7 0.00 0.00 0.00 76 733.5
20260905214245 15 195 4.8 24.1 0.00 0.00 0.00 78 733.5
20260905213745 14 196 6.4 20.9 0.00 0.00 0.00 83 733.5
20260905213245 14 204 9.7 20.9 0.00 0.00 0.00 82 733.5
20260905212745 15 197 6.4 20.9 0.00 0.00 0.00 82 733.5
20260905212245 14 204 6.4 19.3 0.00 0.00 0.00 82 733.5
20260905211753 15 190 11.3 20.9 0.00 0.00 0.00 80 733.8
20260905211245 15 196 8.0 14.5 0.00 0.00 0.00 79 733.8
20260905210745 15 191 6.4 14.5 0.00 0.00 0.00 78 733.8
20260905210245 15 187 6.4 19.3 0.00 0.00 0.00 78 733.8
20260905205751 15 204 6.4 20.9 0.00 0.00 0.00 80 733.8
20260905205248 15 202 9.7 22.5 0.00 0.00 0.00 79 733.8
20260905204745 16 198 11.3 22.5 0.00 0.00 0.00 74 733.8
20260905204245 15 164 3.2 22.5 0.00 0.00 0.00 78 733.8
20260905203745 15 170 4.8 19.3 0.00 0.00 0.00 77 733.8
20260905203245 15 191 6.4 22.5 0.00 0.00 0.00 79 733.8
20260905202748 15 179 9.7 17.7 0.00 0.00 0.00 75 733.8
20260905202245 15 202 4.8 16.1 0.00 0.00 0.00 78 733.8
20260905201745 15 197 4.8 17.7 0.00 0.00 0.00 77 733.8
20260905201247 15 184 6.4 16.1 0.00 0.00 0.00 75 733.8
20260905200745 15 196 4.8 12.9 0.00 0.00 0.00 79 733.8
20260905200245 16 301 1.6 24.1 0.00 0.00 0.00 76 733.8
20260905195745 16 192 9.7 24.1 0.00 0.00 0.00 72 733.8
20260905195245 16 201 4.8 12.9 0.00 0.00 0.00 75 733.8
20260905194748 15 207 3.2 17.7 0.00 0.00 0.00 78 733.8
20260905194245 15 193 4.8 17.7 0.00 0.00 0.00 78 734.2
20260905193745 15 190 11.3 16.1 0.00 0.00 0.00 79 733.8
20260905193248 15 196 6.4 19.3 0.00 0.00 0.00 79 734.2
20260905192748 15 194 8.0 20.9 0.00 0.00 0.00 80 734.2
20260905192248 15 197 9.7 24.1 0.00 0.00 0.00 80 734.2
20260905191748 15 203 8.0 17.7 0.00 0.00 0.00 81 734.2
20260905191245 15 177 9.7 22.5 0.00 0.00 0.00 80 734.2
20260905190745 16 175 8.0 16.1 0.00 0.00 0.00 78 734.2
20260905190248 15 181 8.0 16.1 0.00 0.00 0.00 83 734.2
20260905185745 15 168 8.0 14.5 0.00 0.00 0.00 86 734.2
20260905185245 15 189 9.7 14.5 0.00 0.00 0.00 84 734.2
20260905184745 13 185 8.0 14.5 0.00 0.00 0.00 86 734.2
20260905184248 14 172 9.7 12.9 0.00 0.00 0.00 83 734.2
20260905183745 15 197 3.2 11.3 0.00 0.00 0.00 82 734.5
20260905183248 14 176 8.0 16.1 0.00 0.00 0.00 83 734.5
20260905182745 14 189 9.7 16.1 0.00 0.00 0.00 82 734.2
20260905182245 14 187 8.0 17.7 0.00 0.00 0.00 83 734.5
20260905181745 15 166 11.3 17.7 0.00 0.00 0.00 81 734.5
20260905181251 15 176 8.0 19.3 0.00 0.00 0.00 80 734.5
20260905180748 15 188 9.7 17.7 0.00 0.00 0.00 81 734.2
20260905180245 15 187 11.3 17.7 0.00 0.00 0.00 80 734.2
20260905175745 14 175 8.0 14.5 0.00 0.00 0.00 82 734.2
20260905175245 15 172 9.7 16.1 0.00 0.00 0.00 81 734.2
20260905174745 15 189 6.4 17.7 0.00 0.00 0.00 82 734.2
20260905174245 15 183 6.4 14.5 0.00 0.00 0.00 81 734.2
20260905173745 14 169 6.4 12.9 0.00 0.00 0.00 83 734.2
20260905173245 14 178 6.4 11.3 0.00 0.00 0.00 83 734.2
20260905172745 14 171 6.4 16.1 0.00 0.00 0.00 83 734.2
20260905172248 14 169 6.4 12.9 0.00 0.00 0.00 83 734.2
20260905171745 14 186 6.4 12.9 0.00 0.00 0.00 84 733.8
20260905171248 15 189 6.4 12.9 0.00 0.00 0.00 81 733.8
20260905170745 15 191 4.8 12.9 0.00 0.00 0.00 81 733.8
20260905170247 15 159 4.8 17.7 0.00 0.00 0.00 82 733.8
20260905165748 15 131 3.2 14.5 0.00 0.00 0.00 81 733.8
20260905165245 14 169 8.0 14.5 0.00 0.00 0.00 86 733.8
20260905164751 13 191 9.7 14.5 0.00 0.00 0.00 89 733.8
20260905164245 13 179 6.4 16.1 0.00 0.00 0.00 89 733.8
20260905163745 13 179 6.4 19.3 0.00 0.00 0.00 89 733.8
20260905163245 13 175 8.0 17.7 0.00 0.00 0.00 91 733.8
20260905162748 13 193 6.4 14.5 0.00 0.00 0.00 93 733.8
20260905162246 12 186 8.0 14.5 0.00 0.00 0.00 94 733.8
20260905161745 12 184 8.0 12.9 0.00 0.00 0.00 95 733.8
20260905161245 12 191 6.4 14.5 0.00 0.00 0.00 96 733.8
20260905160745 12 186 6.4 11.3 0.00 0.00 0.00 95 733.8
20260905160249 12 175 9.7 14.5 0.00 0.00 0.00 95 733.8
20260905155746 12 187 8.0 16.1 0.00 0.00 0.00 96 733.8
20260905155249 12 165 8.0 12.9 0.00 0.00 0.00 94 733.8
20260905154745 12 170 8.0 14.5 0.00 0.00 0.00 95 733.8
20260905154248 12 177 9.7 16.1 0.00 0.00 0.00 96 733.5
20260905153748 12 181 11.3 17.7 0.00 0.00 0.00 95 733.5
20260905153245 12 174 11.3 16.1 0.00 0.00 0.00 97 733.5
20260905152745 11 180 9.7 17.7 0.00 0.00 0.00 99 733.5
20260905152245 11 176 11.3 16.1 0.00 0.00 0.00 100 733.5
20260905151747 11 177 11.3 17.7 0.00 0.00 0.00 100 733.5
20260905151245 11 176 11.3 17.7 0.00 0.00 0.00 100 733.5